Weather History for KBBP - August, 2013

Change the Weather History Date:

Saturday, August 17, 2013

  Actual Average (KFLO) Record (KFLO)
Temperature  
Mean Temperature 70 °F 80 °F  
Max Temperature 73 °F 89 °F 106 °F (1954)
Min Temperature 66 °F 71 °F 54 °F (1979)
Degree Days  
Heating Degree Days 0 0  
Month to date heating degree days 0  
Since 1 June heating degree days 1  
Since 1 July heating degree days 0  
Cooling Degree Days 4 15  
Month to date cooling degree days 265  
Year to date cooling degree days 1471  
Since 1 June cooling degree days 1164  
Growing Degree Days 20 (Base 50)    
Moisture  
Dew Point 70 °F    
Average Humidity 100    
Maximum Humidity 100    
Minimum Humidity 100    
Precipitation  
Precipitation 0.50 in 0.17 in 1.95 in (1971)
Month to date precipitation 2.95  
Year to date precipitation 28.19  
Sea Level Pressure  
Sea Level Pressure 30.12 in    
Wind  
Wind Speed 5 mph (NNW)    
Max Wind Speed 7 mph    
Max Gust Speed -    
Visibility 5 miles    
Events Rain    
T = Trace of Precipitation, MM = Missing Value Source: NWS Daily Summary

Daily Weather History Graph

Daily Weather History Graph

Search for Another Location

Airport or City:

Trip Planner

Search our weather history database for the weather conditions in past years. The results will help you decide how hot, cold, wet, or windy it might be!

Date:

Astronomy

Aug. 17, 2013 Rise Set
Actual Time 6:41 AM EDT 8:04 PM EDT
Civil Twilight 6:14 AM EDT 8:30 PM EDT
Nautical Twilight 5:42 AM EDT 9:02 PM EDT
Astronomical Twilight 5:09 AM EDT 9:35 PM EDT
Moon 5:14 PM EDT (8/17) 2:47 AM EDT (8/17)
Length of Visible Light 14h 15m
Length of Day
13h 22m
Waxing Gibbous, 84% of the Moon is Illuminated
Aug 17
Waxing Gibbous
Aug 20
Full
Aug 28
Last Quarter
Sep 5
New
Sep 12
First Quarter

Hourly Weather History & Observations

Time (EDT) Temp. Dew Point Humidity Pressure Visibility Wind Dir Wind Speed Gust Speed Precip Events Conditions
12:15 AM 68.0 °F 68.0 °F 100% 30.14 in 10.0 mi NNE 3.5 mph - N/A   Overcast
12:35 AM 68.0 °F 68.0 °F 100% 30.13 in 10.0 mi NE 3.5 mph - N/A   Overcast
12:55 AM 68.0 °F 68.0 °F 100% 30.13 in 10.0 mi North 4.6 mph - N/A   Overcast
1:15 AM 68.0 °F 68.0 °F 100% 30.12 in 10.0 mi NE 5.8 mph - N/A   Overcast
1:35 AM 68.0 °F 68.0 °F 100% 30.11 in 10.0 mi NNE 6.9 mph - N/A   Overcast
1:55 AM 68.0 °F 68.0 °F 100% 30.11 in 10.0 mi NE 6.9 mph - N/A   Overcast
2:15 AM 68.0 °F 68.0 °F 100% 30.11 in 10.0 mi NE 6.9 mph - N/A   Overcast
2:35 AM 68.0 °F 68.0 °F 100% 30.11 in 10.0 mi NNE 5.8 mph - N/A   Overcast
2:55 AM 68.0 °F 68.0 °F 100% 30.10 in 10.0 mi NE 5.8 mph - N/A   Overcast
3:15 AM 68.0 °F 68.0 °F 100% 30.09 in 10.0 mi NNE 5.8 mph - N/A   Overcast
3:35 AM 68.0 °F 68.0 °F 100% 30.09 in 10.0 mi NNE 6.9 mph - N/A   Overcast
3:55 AM 68.0 °F 68.0 °F 100% 30.09 in 10.0 mi NNE 4.6 mph - N/A   Overcast
4:15 AM 68.0 °F 68.0 °F 100% 30.09 in 5.0 mi NNE 4.6 mph - 0.02 in Rain Rain
4:35 AM 68.0 °F 68.0 °F 100% 30.09 in 7.0 mi North 4.6 mph - 0.03 in Rain Rain
4:55 AM 68.0 °F 68.0 °F 100% 30.10 in 2.5 mi NW 6.9 mph - 0.22 in Rain Heavy Rain
5:15 AM 68.0 °F 68.0 °F 100% 30.10 in 7.0 mi North 5.8 mph - 0.06 in Rain Rain
5:35 AM 66.2 °F 66.2 °F 100% 30.10 in 7.0 mi North 3.5 mph - 0.06 in   Drizzle
5:55 AM 66.2 °F 66.2 °F 100% 30.10 in 5.0 mi NW 3.5 mph - 0.12 in Rain Light Rain
6:15 AM 66.2 °F 66.2 °F 100% 30.10 in 4.0 mi NNW 5.8 mph - 0.13 in Rain Light Rain
6:35 AM 66.2 °F 66.2 °F 100% 30.11 in 7.0 mi WNW 3.5 mph - 0.13 in Rain Light Rain
6:55 AM 66.2 °F 66.2 °F 100% 30.11 in 7.0 mi NNW 5.8 mph - 0.13 in   Overcast
7:15 AM 66.2 °F 66.2 °F 100% 30.11 in 4.0 mi NW 5.8 mph - N/A   Overcast
7:35 AM 66.2 °F 66.2 °F 100% 30.11 in 2.5 mi North 4.6 mph - N/A Rain Light Rain
7:55 AM 68.0 °F 68.0 °F 100% 30.11 in 4.0 mi NNW 5.8 mph - N/A   Overcast
8:15 AM 68.0 °F 68.0 °F 100% 30.11 in 4.0 mi NNW 3.5 mph - N/A   Overcast
8:35 AM 68.0 °F 68.0 °F 100% 30.12 in 3.0 mi North 6.9 mph - N/A   Overcast
8:55 AM 68.0 °F 68.0 °F 100% 30.12 in 1.8 mi North 4.6 mph - 0.01 in   Drizzle
9:15 AM 68.0 °F 68.0 °F 100% 30.13 in 1.8 mi NNW 5.8 mph - N/A   Drizzle
9:35 AM 68.0 °F 68.0 °F 100% 30.13 in 2.0 mi North 6.9 mph - N/A   Light Drizzle
9:55 AM 68.0 °F 68.0 °F 100% 30.13 in 2.0 mi NNW 5.8 mph - 0.01 in   Overcast
10:15 AM 68.0 °F 68.0 °F 100% 30.13 in 2.0 mi NNW 5.8 mph - N/A   Light Drizzle
10:35 AM 68.0 °F 68.0 °F 100% 30.14 in 2.5 mi NNW 5.8 mph - N/A Rain Rain
10:55 AM 68.0 °F 68.0 °F 100% 30.14 in 2.0 mi North 4.6 mph - N/A   Drizzle
11:15 AM 69.8 °F 69.8 °F 100% 30.14 in 3.0 mi NNE 5.8 mph - N/A   Overcast
11:35 AM 69.8 °F 69.8 °F 100% 30.14 in 3.0 mi North 5.8 mph - N/A   Overcast
11:55 AM 69.8 °F 69.8 °F 100% 30.14 in 2.5 mi NNE 3.5 mph - N/A   Overcast
12:15 PM 69.8 °F 69.8 °F 100% 30.14 in 2.5 mi NNW 3.5 mph - N/A   Overcast
12:35 PM 69.8 °F 69.8 °F 100% 30.14 in 2.0 mi NNW 3.5 mph - N/A   Overcast
12:55 PM 69.8 °F 69.8 °F 100% 30.14 in 2.0 mi NW 3.5 mph - N/A   Overcast
1:15 PM 69.8 °F 69.8 °F 100% 30.14 in 1.5 mi NNW 4.6 mph - N/A   Overcast
1:35 PM 71.6 °F 71.6 °F 100% 30.13 in 1.5 mi NNW 3.5 mph - N/A   Light Drizzle
1:55 PM 71.6 °F 71.6 °F 100% 30.12 in 2.5 mi North 5.8 mph - N/A   Overcast
2:15 PM 71.6 °F 71.6 °F 100% 30.12 in 3.0 mi NNW 4.6 mph - N/A   Overcast
2:35 PM 71.6 °F 71.6 °F 100% 30.11 in 4.0 mi North 3.5 mph - N/A   Overcast
2:55 PM 71.6 °F 71.6 °F 100% 30.11 in 5.0 mi NNW 3.5 mph - N/A   Overcast
3:15 PM 71.6 °F 71.6 °F 100% 30.11 in 7.0 mi Calm Calm - N/A   Overcast
3:35 PM 71.6 °F 71.6 °F 100% 30.11 in 5.0 mi Calm Calm - N/A   Overcast
3:55 PM 71.6 °F 71.6 °F 100% 30.10 in 3.0 mi WNW 3.5 mph - N/A   Overcast
4:15 PM 71.6 °F 71.6 °F 100% 30.10 in 2.0 mi WNW 3.5 mph - N/A Rain Light Rain
4:35 PM 71.6 °F 71.6 °F 100% 30.10 in 1.2 mi WNW 3.5 mph - N/A   Light Drizzle
4:55 PM 71.6 °F 71.6 °F 100% 30.10 in 1.2 mi WNW 5.8 mph - N/A   Light Drizzle
5:15 PM 71.6 °F 71.6 °F 100% 30.10 in 1.2 mi WNW 4.6 mph - N/A   Light Drizzle
5:35 PM 71.6 °F 71.6 °F 100% 30.10 in 1.8 mi NW 5.8 mph - N/A   Overcast
5:55 PM 73.4 °F 73.4 °F 100% 30.10 in 2.5 mi NNW 6.9 mph - N/A   Overcast
6:15 PM 71.6 °F 71.6 °F 100% 30.11 in 4.0 mi NW 5.8 mph - N/A   Overcast
6:35 PM 71.6 °F 71.6 °F 100% 30.11 in 4.0 mi West 3.5 mph - N/A   Overcast
6:55 PM 71.6 °F 71.6 °F 100% 30.11 in 7.0 mi NW 4.6 mph - N/A   Overcast
7:15 PM 71.6 °F 71.6 °F 100% 30.12 in 5.0 mi West 3.5 mph - N/A   Overcast
7:35 PM 71.6 °F 71.6 °F 100% 30.12 in 4.0 mi West 3.5 mph - N/A   Overcast
7:55 PM 71.6 °F 71.6 °F 100% 30.12 in 5.0 mi NW 3.5 mph - N/A   Overcast
8:15 PM 71.6 °F 71.6 °F 100% 30.12 in 3.0 mi Calm Calm - N/A   Overcast
8:35 PM 71.6 °F 71.6 °F 100% 30.12 in 4.0 mi NW 4.6 mph - N/A   Overcast
8:55 PM 71.6 °F 71.6 °F 100% 30.13 in 10.0 mi West 3.5 mph - N/A   Overcast
9:15 PM 71.6 °F 71.6 °F 100% 30.14 in 10.0 mi Calm Calm - N/A   Overcast
9:35 PM 71.6 °F 71.6 °F 100% 30.14 in 5.0 mi NW 3.5 mph - N/A   Overcast
9:55 PM 71.6 °F 71.6 °F 100% 30.15 in 4.0 mi West 4.6 mph - N/A   Overcast
10:15 PM 71.6 °F 71.6 °F 100% 30.16 in 3.0 mi SW 4.6 mph - N/A   Overcast
10:35 PM 71.6 °F 71.6 °F 100% 30.14 in 5.0 mi Calm Calm - 0.01 in Rain Rain
10:55 PM 71.6 °F 71.6 °F 100% 30.14 in 4.0 mi Calm Calm - 0.01 in   Overcast
11:15 PM 71.6 °F 71.6 °F 100% 30.16 in 5.0 mi WSW 3.5 mph - N/A   Overcast
11:35 PM 71.6 °F 71.6 °F 100% 30.16 in 5.0 mi WSW 3.5 mph - N/A   Overcast
11:55 PM 71.6 °F 71.6 °F 100% 30.15 in 5.0 mi Calm Calm - N/A   Overcast